GW3531 Weather Reports


time (UTC)temp
F
wind
direction
speed
knots
gust
knots
rain 1hr
in
rain 24hr
in
rain mn
in
humidity
%
barometer
mb
20260506143055 68 225 7.0 14.8 0.00 0.00 0.00 65 1009.5
20260506141555 68 152 7.8 14.8 0.00 0.00 0.00 66 1009.4
20260506134556 66 169 9.6 18.2 0.00 0.00 0.00 68 1009.7
20260506133052 66 179 11.3 20.0 0.00 0.00 0.00 68 1009.8
20260506131556 66 191 11.3 19.1 0.00 0.00 0.00 69 1009.9
20260506130058 66 181 11.3 17.4 0.00 0.00 0.00 69 1009.7
20260506124601 66 172 11.3 18.2 0.00 0.00 0.00 70 1009.7
20260506123057 65 188 8.7 15.6 0.00 0.00 0.00 71 1009.7
20260506121556 65 180 9.6 18.2 0.00 0.00 0.00 72 1009.9
20260506120058 64 141 7.8 14.8 0.00 0.00 0.00 72 1010.1
20260506114559 64 153 10.4 16.5 0.00 0.00 0.00 74 1010.1
20260506113058 63 173 7.8 15.6 0.00 0.00 0.00 75 1010.2
20260506111555 64 168 10.4 18.2 0.00 0.00 0.00 74 1010.2
20260506110055 64 155 9.6 15.6 0.00 0.00 0.00 75 1010.1
20260506104558 63 183 7.8 14.8 0.00 0.00 0.00 76 1010.2
20260506103104 64 181 8.7 15.6 0.00 0.00 0.00 75 1010.1
20260506101559 64 172 10.4 16.5 0.00 0.00 0.00 74 1009.9
20260506100100 64 156 10.4 15.6 0.00 0.00 0.00 74 1009.9
20260506094603 64 168 9.6 18.2 0.00 0.00 0.00 74 1009.8
20260506093103 64 162 10.4 18.2 0.00 0.00 0.00 74 1009.9
20260506091602 64 165 12.2 18.2 0.00 0.00 0.00 74 1009.9
20260506084607 65 162 12.2 20.0 0.00 0.00 0.00 73 1010.1
20260506083058 65 168 10.4 19.1 0.00 0.00 0.00 73 1010.0
20260506081554 65 197 11.3 22.6 0.00 0.00 0.00 73 1010.2
20260506080106 65 175 11.3 20.9 0.00 0.00 0.00 72 1010.2
20260506073058 66 179 12.2 18.2 0.00 0.00 0.00 70 1010.2
20260506071604 66 168 10.4 18.2 0.00 0.00 0.00 69 1010.3
20260506061553 67 175 10.4 14.8 0.00 0.00 0.00 67 1010.3
20260506050104 67 178 9.6 14.8 0.00 0.00 0.00 65 1011.1
20260506044555 67 177 9.6 16.5 0.00 0.00 0.00 64 1011.0
20260506043054 67 181 9.6 19.1 0.00 0.00 0.00 64 1011.0
20260506041556 68 187 10.4 17.4 0.00 0.00 0.00 63 1011.0
20260506040056 68 176 9.6 16.5 0.00 0.00 0.00 62 1010.9
20260506034613 67 160 10.4 16.5 0.00 0.00 0.00 62 1010.9
20260506033054 68 193 12.2 18.2 0.00 0.00 0.00 61 1010.9
20260506031556 68 160 11.3 21.7 0.00 0.00 0.00 61 1010.7
20260506030053 68 159 11.3 20.9 0.00 0.00 0.00 59 1010.6
20260506024616 68 163 10.4 20.9 0.00 0.00 0.00 59 1010.7
20260506023056 69 183 12.2 20.0 0.00 0.00 0.00 58 1010.7
20260506021557 69 197 12.2 20.9 0.00 0.00 0.00 59 1010.6
20260506020053 70 170 14.8 22.6 0.00 0.00 0.00 57 1010.6
20260506014556 70 163 12.2 19.1 0.00 0.00 0.00 56 1010.4
20260506013108 70 193 8.7 20.9 0.00 0.00 0.00 56 1010.1
20260506011605 69 204 10.4 20.0 0.00 0.00 0.00 58 1009.9
20260506010058 72 170 15.6 31.3 0.00 0.00 0.00 52 1009.8
20260506004554 73 165 7.8 13.0 0.00 0.00 0.00 50 1009.7
20260506003053 74 157 7.8 15.6 0.00 0.00 0.00 47 1009.4
20260506001555 75 181 10.4 15.6 0.00 0.00 0.00 43 1009.3
20260506000055 74 183 7.8 16.5 0.00 0.00 0.00 44 1009.2
20260505234552 75 175 9.6 15.6 0.00 0.00 0.00 43 1009.0
20260505233102 77 190 9.6 17.4 0.00 0.00 0.00 39 1008.9
20260505231552 78 139 12.2 22.6 0.00 0.00 0.00 36 1008.4
20260505230104 79 210 14.8 25.2 0.00 0.00 0.00 31 1008.3
20260505224554 78 186 13.9 25.2 0.00 0.00 0.00 31 1008.1
20260505223108 79 214 8.7 22.6 0.00 0.00 0.00 32 1008.2
20260505221559 79 192 10.4 18.2 0.00 0.00 0.00 36 1008.1
20260505220108 79 185 12.2 27.8 0.00 0.00 0.00 35 1007.8
20260505214553 79 212 11.3 24.3 0.00 0.00 0.00 35 1007.7
20260505213100 79 207 12.2 31.3 0.00 0.00 0.00 35 1007.6
20260505211553 79 204 14.8 23.5 0.00 0.00 0.00 34 1007.7
20260505210054 79 189 13.9 23.5 0.00 0.00 0.00 32 1007.5
20260505204601 79 181 13.0 26.1 0.00 0.00 0.00 33 1007.6
20260505203108 79 191 15.6 26.1 0.00 0.00 0.00 34 1007.6
20260505201552 78 171 10.4 23.5 0.00 0.00 0.00 35 1007.6
20260505200054 78 143 12.2 18.2 0.00 0.00 0.00 37 1007.7
20260505194605 77 178 10.4 19.1 0.00 0.00 0.00 40 1008.0
20260505193056 75 214 7.0 15.6 0.00 0.00 0.00 47 1008.3
20260505191558 78 144 7.0 14.8 0.00 0.00 0.00 42 1008.5
20260505190053 78 167 10.4 18.2 0.00 0.00 0.00 41 1008.8
20260505184555 78 195 11.3 23.5 0.00 0.00 0.00 40 1009.1
20260505183101 77 199 8.7 21.7 0.00 0.00 0.00 42 1009.2
20260505181555 76 206 9.6 17.4 0.00 0.00 0.00 45 1009.2
20260505180056 77 187 8.7 18.2 0.00 0.00 0.00 42 1009.2
20260505174558 77 195 9.6 14.8 0.00 0.00 0.00 43 1009.3
20260505173056 76 218 10.4 17.4 0.00 0.00 0.00 44 1009.6
20260505171555 72 175 7.8 13.0 0.00 0.00 0.00 51 1009.8
20260505170057 74 185 7.8 14.8 0.00 0.00 0.00 47 1009.9
20260505164601 71 191 6.1 10.4 0.00 0.00 0.00 52 1010.2
20260505163100 70 194 7.8 12.2 0.00 0.00 0.00 54 1010.3
20260505161553 70 183 6.1 12.2 0.00 0.00 0.00 56 1010.4
20260505153115 71 182 6.1 12.2 0.00 0.00 0.00 52 1010.9
20260505151600 70 176 7.0 12.2 0.00 0.00 0.00 55 1011.1